This demonstration page uses our WeatherBlox Daily Observations layout. Learn more.

39.29038, -76.61219

Hourly Observations for March 6, 2019

Temp ( °F °C ) Dew Point ( °F °C ) Humidity (%) Winds ( mph kmh ) Pressure ( in mb ) Visibility ( mi km ) Precip ( " mm )
12:54 am 00:54 undefined 26 -3.3 5 -15 40 40 undefined N/A 30.14 1021 N/A 0 0
1:26 am 01:26 undefined 26 -3.3 5 -15 40 40 undefined N/A 30.19 1022 N/A 0 0
1:54 am 01:54 undefined 25 -3.9 7 -13.9 46 46 undefined N/A 30.18 1022 N/A 0 0
2:54 am 02:54 undefined 24 -4.4 4 -15.6 42 42 undefined N/A 30.15 1021 N/A 0 0
3:54 am 03:54 undefined 23 -5 2 -16.7 40 40 undefined N/A 30.17 1022 N/A 0 0
4:54 am 04:54 undefined 22 -5.6 2 -16.7 42 42 undefined N/A 30.2 1023 N/A 0 0
5:54 am 05:54 undefined 22 -5.6 1 -17.2 40 40 undefined N/A 30.21 1023 N/A 0 0
6:54 am 06:54 undefined 21 -6.1 1 -17.2 41 41 undefined N/A 30.24 1024 N/A 0 0
7:54 am 07:54 undefined 22 -5.6 1 -17.2 40 40 undefined N/A 30.27 1025 N/A 0 0
8:54 am 08:54 undefined 24 -4.4 0 -17.8 35 35 undefined N/A 30.23 1024 N/A 0 0
9:54 am 09:54 undefined 26 -3.3 2 -16.7 35 35 undefined N/A 30.28 1025 N/A 0 0
10:54 am 10:54 undefined 28 -2.2 3 -16.1 34 34 undefined N/A 30.27 1025 N/A 0 0
11:54 am 11:54 undefined 26 -3.3 2 -16.7 35 35 undefined N/A 30.25 1025 N/A 0 0
12:54 pm 12:54 undefined 30 -1.1 4 -15.6 33 33 undefined N/A 30.28 1025 N/A 0 0
1:54 pm 13:54 undefined 28 -2.2 3 -16.1 34 34 undefined N/A 30.23 1024 N/A 0 0
2:54 pm 14:54 undefined 29 -1.7 3 -16.1 33 33 undefined N/A 30.21 1023 N/A 0 0
3:54 pm 15:54 undefined 29 -1.7 2 -16.7 31 31 undefined N/A 30.22 1024 N/A 0 0
4:54 pm 16:54 undefined 29 -1.7 2 -16.7 31 31 undefined N/A 30.26 1025 N/A 0 0
5:54 pm 17:54 undefined 28 -2.2 3 -16.1 34 34 undefined N/A 30.3 1026 N/A 0 0
6:54 pm 18:54 undefined 28 -2.2 3 -16.1 34 34 undefined N/A 30.21 1023 N/A 0 0
7:54 pm 19:54 undefined 27 -2.8 3 -16.1 35 35 undefined N/A 30.37 1029 N/A 0 0
8:07 pm 20:07 undefined 27 -2.8 3 -16.1 35 35 undefined N/A 30.37 1028 N/A 0 0
8:54 pm 20:54 undefined 27 -2.8 4 -15.6 37 37 undefined N/A 30.25 1024 N/A 0 0
9:54 pm 21:54 undefined 26 -3.3 3 -16.1 37 37 undefined N/A 30.36 1028 N/A 0 0
10:31 pm 22:31 undefined 26 -3.3 4 -15.6 38 38 undefined N/A 30.41 1030 N/A 0 0
10:54 pm 22:54 undefined 25 -3.9 4 -15.6 40 40 undefined N/A 30.34 1027 N/A 0 0
11:54 pm 23:54 undefined 25 -3.9 4 -15.6 40 40 undefined N/A 30.28 1026 N/A 0 0

Powered by AerisWeather